Location: Newark
(12.4436°N, 0.6167°W)
Time: 19:57:59
(UTC+00:00)

Transit 2A - Pass Details

Date: 17 December 2019
Orbit: 601 x 958 km, 66.7° (Epoch: 28 January)

Event Time Altitude Azimuth Distance (km) Brightness Sun altitude
Rises 15:06:11 0° 345° (NNW) 2,993 8.9 31.8°
Reaches altitude 10° 15:08:25 10° 349° (N) 2,126 8.2 31.4°
Maximum altitude 15:13:11 61° 69° (ENE) 827 6.3 30.4°
Drops below altitude 10° 15:18:29 10° 150° (SSE) 2,355 8.7 29.4°
Sets 15:21:04 0° 153° (SSE) 3,345 9.4 28.9°
